Time,TemperatureF,DewpointF,PressureIn,WindDirection,WindDirectionDegrees,WindSpeedMPH,WindSpeedGustMPH,Humidity,HourlyPrecipIn,Conditions,Clouds,dailyrainin,SoftwareType,DateUTC
2013-02-13 00:01:00,29.7,14.3,-100.00,North,-999,-999.0,-999.0,48,-99.99,,,-99.99,WSDL version 420,2013-02-13 07:01:00,
2013-02-13 00:06:00,29.7,14.3,-100.00,North,-999,-999.0,-999.0,48,-99.99,,,-99.99,WSDL version 420,2013-02-13 07:06:00,
2013-02-13 00:11:00,29.8,14.4,-100.00,North,-999,-999.0,-999.0,48,-99.99,,,-99.99,WSDL version 420,2013-02-13 07:11:00,
2013-02-13 00:16:00,30.0,14.6,-100.00,North,-999,-999.0,-999.0,48,-99.99,,,-99.99,WSDL version 420,2013-02-13 07:16:00,
2013-02-13 00:21:00,30.2,15.0,-100.00,North,-999,-999.0,-999.0,49,-99.99,,,-99.99,WSDL version 420,2013-02-13 07:21:00,
2013-02-13 00:26:00,30.3,15.1,-100.00,North,-999,-999.0,-999.0,48,-99.99,,,-99.99,WSDL version 420,2013-02-13 07:26:00,
2013-02-13 00:31:00,30.4,14.9,-100.00,North,-999,-999.0,-999.0,48,-99.99,,,-99.99,WSDL version 420,2013-02-13 07:31:00,
2013-02-13 00:36:00,30.4,14.9,-100.00,North,-999,-999.0,-999.0,48,-99.99,,,-99.99,WSDL version 420,2013-02-13 07:36:00,
2013-02-13 00:41:00,30.5,15.1,-100.00,North,-999,-999.0,-999.0,48,-99.99,,,-99.99,WSDL version 420,2013-02-13 07:41:00,
2013-02-13 00:46:00,30.6,15.1,-100.00,North,-999,-999.0,-999.0,48,-99.99,,,-99.99,WSDL version 420,2013-02-13 07:46:00,
2013-02-13 00:51:00,30.7,15.2,-100.00,North,-999,-999.0,-999.0,48,-99.99,,,-99.99,WSDL version 420,2013-02-13 07:51:00,
2013-02-13 00:56:00,30.9,15.7,-100.00,North,-999,-999.0,-999.0,49,-99.99,,,-99.99,WSDL version 420,2013-02-13 07:56:00,
2013-02-13 01:01:00,30.9,15.9,-100.00,North,-999,-999.0,-999.0,49,-99.99,,,-99.99,WSDL version 420,2013-02-13 08:01:00,
2013-02-13 01:13:00,31.2,15.7,-100.00,North,-999,-999.0,-999.0,48,-99.99,,,-99.99,WSDL version 420,2013-02-13 08:13:00,
2013-02-13 01:18:00,31.3,15.8,-100.00,North,-999,-999.0,-999.0,48,-99.99,,,-99.99,WSDL version 420,2013-02-13 08:18:00,
2013-02-13 01:23:00,31.3,15.8,-100.00,North,-999,-999.0,-999.0,48,-99.99,,,-99.99,WSDL version 420,2013-02-13 08:23:00,
2013-02-13 01:28:00,31.2,15.7,-100.00,North,-999,-999.0,-999.0,48,-99.99,,,-99.99,WSDL version 420,2013-02-13 08:28:00,
2013-02-13 01:33:00,31.1,15.6,-100.00,North,-999,-999.0,-999.0,48,-99.99,,,-99.99,WSDL version 420,2013-02-13 08:33:00,
2013-02-13 01:38:00,30.9,15.5,-100.00,North,-999,-999.0,-999.0,48,-99.99,,,-99.99,WSDL version 420,2013-02-13 08:38:00,
2013-02-13 01:43:00,30.7,15.3,-100.00,North,-999,-999.0,-999.0,48,-99.99,,,-99.99,WSDL version 420,2013-02-13 08:43:00,
2013-02-13 01:48:00,30.7,15.3,-100.00,North,-999,-999.0,-999.0,48,-99.99,,,-99.99,WSDL version 420,2013-02-13 08:48:00,
2013-02-13 01:53:00,30.7,15.3,-100.00,North,-999,-999.0,-999.0,49,-99.99,,,-99.99,WSDL version 420,2013-02-13 08:53:00,
2013-02-13 01:58:00,30.9,15.8,-100.00,North,-999,-999.0,-999.0,49,-99.99,,,-99.99,WSDL version 420,2013-02-13 08:58:00,
2013-02-13 02:13:00,30.7,15.7,-100.00,North,-999,-999.0,-999.0,49,-99.99,,,-99.99,WSDL version 420,2013-02-13 09:13:00,
2013-02-13 02:18:00,30.9,15.9,-100.00,North,-999,-999.0,-999.0,49,-99.99,,,-99.99,WSDL version 420,2013-02-13 09:18:00,
2013-02-13 02:23:00,30.9,15.9,-100.00,North,-999,-999.0,-999.0,49,-99.99,,,-99.99,WSDL version 420,2013-02-13 09:23:00,
2013-02-13 02:28:00,30.9,15.9,-100.00,North,-999,-999.0,-999.0,49,-99.99,,,-99.99,WSDL version 420,2013-02-13 09:28:00,
2013-02-13 02:33:00,31.0,16.0,-100.00,North,-999,-999.0,-999.0,49,-99.99,,,-99.99,WSDL version 420,2013-02-13 09:33:00,
2013-02-13 02:38:00,31.1,16.0,-100.00,North,-999,-999.0,-999.0,49,-99.99,,,-99.99,WSDL version 420,2013-02-13 09:38:00,
2013-02-13 02:43:00,31.1,16.0,-100.00,North,-999,-999.0,-999.0,49,-99.99,,,-99.99,WSDL version 420,2013-02-13 09:43:00,
2013-02-13 02:48:00,31.0,16.1,-100.00,North,-999,-999.0,-999.0,50,-99.99,,,-99.99,WSDL version 420,2013-02-13 09:48:00,
2013-02-13 02:53:00,31.2,16.2,-100.00,North,-999,-999.0,-999.0,49,-99.99,,,-99.99,WSDL version 420,2013-02-13 09:53:00,
2013-02-13 02:58:00,31.3,16.2,-100.00,North,-999,-999.0,-999.0,49,-99.99,,,-99.99,WSDL version 420,2013-02-13 09:58:00,
2013-02-13 03:13:00,31.1,16.0,-100.00,North,-999,-999.0,-999.0,49,-99.99,,,-99.99,WSDL version 420,2013-02-13 10:13:00,
2013-02-13 03:18:00,31.0,15.7,-100.00,North,-999,-999.0,-999.0,48,-99.99,,,-99.99,WSDL version 420,2013-02-13 10:18:00,
2013-02-13 03:23:00,30.8,15.3,-100.00,North,-999,-999.0,-999.0,48,-99.99,,,-99.99,WSDL version 420,2013-02-13 10:23:00,
2013-02-13 12:06:00,49.8,27.1,-100.00,North,-999,-999.0,-999.0,41,-99.99,,,-99.99,WSDL version 420,2013-02-13 19:06:00,
2013-02-13 12:11:00,50.0,27.2,-100.00,North,-999,-999.0,-999.0,41,-99.99,,,-99.99,WSDL version 420,2013-02-13 19:11:00,
2013-02-13 12:16:00,51.1,27.8,-100.00,North,-999,-999.0,-999.0,40,-99.99,,,-99.99,WSDL version 420,2013-02-13 19:16:00,
2013-02-13 12:21:00,51.9,28.3,-100.00,North,-999,-999.0,-999.0,40,-99.99,,,-99.99,WSDL version 420,2013-02-13 19:21:00,
2013-02-13 12:26:00,52.7,29.0,-100.00,North,-999,-999.0,-999.0,39,-99.99,,,-99.99,WSDL version 420,2013-02-13 19:26:00,
2013-02-13 12:31:00,51.6,27.9,-100.00,North,-999,-999.0,-999.0,40,-99.99,,,-99.99,WSDL version 420,2013-02-13 19:31:00,
2013-02-13 12:36:00,49.0,25.9,-100.00,North,-999,-999.0,-999.0,41,-99.99,,,-99.99,WSDL version 420,2013-02-13 19:36:00,
2013-02-13 12:41:00,47.0,25.1,-100.00,North,-999,-999.0,-999.0,43,-99.99,,,-99.99,WSDL version 420,2013-02-13 19:41:00,
2013-02-13 12:46:00,45.1,24.7,-100.00,North,-999,-999.0,-999.0,45,-99.99,,,-99.99,WSDL version 420,2013-02-13 19:46:00,
2013-02-13 12:51:00,43.7,25.2,-100.00,North,-999,-999.0,-999.0,50,-99.99,,,-99.99,WSDL version 420,2013-02-13 19:51:00,
2013-02-13 12:56:00,42.3,24.9,-100.00,North,-999,-999.0,-999.0,51,-99.99,,,-99.99,WSDL version 420,2013-02-13 19:56:00,
2013-02-13 13:01:00,41.5,24.3,-100.00,North,-999,-999.0,-999.0,50,-99.99,,,-99.99,WSDL version 420,2013-02-13 20:01:00,
2013-02-13 13:06:00,41.2,24.2,-100.00,North,-999,-999.0,-999.0,51,-99.99,,,-99.99,WSDL version 420,2013-02-13 20:06:00,
2013-02-13 13:11:00,41.1,24.4,-100.00,North,-999,-999.0,-999.0,52,-99.99,,,-99.99,WSDL version 420,2013-02-13 20:11:00,
2013-02-13 13:16:00,40.3,24.3,-100.00,North,-999,-999.0,-999.0,53,-99.99,,,-99.99,WSDL version 420,2013-02-13 20:16:00,
2013-02-13 13:21:00,39.8,24.9,-100.00,North,-999,-999.0,-999.0,55,-99.99,,,-99.99,WSDL version 420,2013-02-13 20:21:00,
2013-02-13 13:26:00,40.0,25.2,-100.00,North,-999,-999.0,-999.0,55,-99.99,,,-99.99,WSDL version 420,2013-02-13 20:26:00,
2013-02-13 13:31:00,40.7,26.3,-100.00,North,-999,-999.0,-999.0,57,-99.99,,,-99.99,WSDL version 420,2013-02-13 20:31:00,
2013-02-13 13:36:00,40.4,26.4,-100.00,North,-999,-999.0,-999.0,57,-99.99,,,-99.99,WSDL version 420,2013-02-13 20:36:00,
2013-02-13 13:41:00,40.2,25.7,-100.00,North,-999,-999.0,-999.0,56,-99.99,,,-99.99,WSDL version 420,2013-02-13 20:41:00,
2013-02-13 13:46:00,40.9,26.5,-100.00,North,-999,-999.0,-999.0,56,-99.99,,,-99.99,WSDL version 420,2013-02-13 20:46:00,
2013-02-13 13:51:00,41.4,26.9,-100.00,North,-999,-999.0,-999.0,56,-99.99,,,-99.99,WSDL version 420,2013-02-13 20:51:00,
2013-02-13 13:56:00,41.8,27.3,-100.00,North,-999,-999.0,-999.0,56,-99.99,,,-99.99,WSDL version 420,2013-02-13 20:56:00,
2013-02-13 14:01:00,41.7,27.3,-100.00,North,-999,-999.0,-999.0,56,-99.99,,,-99.99,WSDL version 420,2013-02-13 21:01:00,
2013-02-13 14:06:00,41.3,26.8,-100.00,North,-999,-999.0,-999.0,56,-99.99,,,-99.99,WSDL version 420,2013-02-13 21:06:00,
2013-02-13 14:11:00,40.8,26.3,-100.00,North,-999,-999.0,-999.0,56,-99.99,,,-99.99,WSDL version 420,2013-02-13 21:11:00,
2013-02-13 14:16:00,40.8,26.3,-100.00,North,-999,-999.0,-999.0,55,-99.99,,,-99.99,WSDL version 420,2013-02-13 21:16:00,
2013-02-13 14:21:00,41.2,26.3,-100.00,North,-999,-999.0,-999.0,55,-99.99,,,-99.99,WSDL version 420,2013-02-13 21:21:00,
2013-02-13 14:26:00,41.2,26.0,-100.00,North,-999,-999.0,-999.0,54,-99.99,,,-99.99,WSDL version 420,2013-02-13 21:26:00,
2013-02-13 14:31:00,41.3,25.9,-100.00,North,-999,-999.0,-999.0,54,-99.99,,,-99.99,WSDL version 420,2013-02-13 21:31:00,
2013-02-13 14:36:00,41.2,25.6,-100.00,North,-999,-999.0,-999.0,53,-99.99,,,-99.99,WSDL version 420,2013-02-13 21:36:00,
2013-02-13 14:41:00,41.2,25.4,-100.00,North,-999,-999.0,-999.0,53,-99.99,,,-99.99,WSDL version 420,2013-02-13 21:41:00,
2013-02-13 14:46:00,41.2,25.4,-100.00,North,-999,-999.0,-999.0,53,-99.99,,,-99.99,WSDL version 420,2013-02-13 21:46:00,
2013-02-13 14:51:00,41.2,25.4,-100.00,North,-999,-999.0,-999.0,53,-99.99,,,-99.99,WSDL version 420,2013-02-13 21:51:00,
2013-02-13 14:56:00,41.4,25.6,-100.00,North,-999,-999.0,-999.0,53,-99.99,,,-99.99,WSDL version 420,2013-02-13 21:56:00,
2013-02-13 15:01:00,41.7,25.8,-100.00,North,-999,-999.0,-999.0,53,-99.99,,,-99.99,WSDL version 420,2013-02-13 22:01:00,
2013-02-13 15:13:00,42.3,26.4,-100.00,North,-999,-999.0,-999.0,53,-99.99,,,-99.99,WSDL version 420,2013-02-13 22:13:00,
2013-02-13 15:18:00,42.3,26.1,-100.00,North,-999,-999.0,-999.0,52,-99.99,,,-99.99,WSDL version 420,2013-02-13 22:18:00,
2013-02-13 15:23:00,42.4,26.0,-100.00,North,-999,-999.0,-999.0,52,-99.99,,,-99.99,WSDL version 420,2013-02-13 22:23:00,
2013-02-13 15:28:00,42.7,26.4,-100.00,North,-999,-999.0,-999.0,52,-99.99,,,-99.99,WSDL version 420,2013-02-13 22:28:00,
2013-02-13 15:33:00,42.8,26.4,-100.00,North,-999,-999.0,-999.0,52,-99.99,,,-99.99,WSDL version 420,2013-02-13 22:33:00,
2013-02-13 15:38:00,42.6,26.2,-100.00,North,-999,-999.0,-999.0,52,-99.99,,,-99.99,WSDL version 420,2013-02-13 22:38:00,
2013-02-13 15:43:00,41.7,25.6,-100.00,North,-999,-999.0,-999.0,54,-99.99,,,-99.99,WSDL version 420,2013-02-13 22:43:00,
2013-02-13 15:48:00,40.8,25.7,-100.00,North,-999,-999.0,-999.0,56,-99.99,,,-99.99,WSDL version 420,2013-02-13 22:48:00,
2013-02-13 15:53:00,40.4,25.6,-100.00,North,-999,-999.0,-999.0,55,-99.99,,,-99.99,WSDL version 420,2013-02-13 22:53:00,
2013-02-13 15:58:00,40.3,25.5,-100.00,North,-999,-999.0,-999.0,56,-99.99,,,-99.99,WSDL version 420,2013-02-13 22:58:00,
2013-02-13 16:03:00,40.0,25.4,-100.00,North,-999,-999.0,-999.0,55,-99.99,,,-99.99,WSDL version 420,2013-02-13 23:03:00,
2013-02-13 16:09:00,39.7,24.9,-100.00,North,-999,-999.0,-999.0,55,-99.99,,,-99.99,WSDL version 420,2013-02-13 23:09:00,
2013-02-13 16:14:00,39.7,24.7,-100.00,North,-999,-999.0,-999.0,54,-99.99,,,-99.99,WSDL version 420,2013-02-13 23:14:00,
2013-02-13 16:19:00,39.6,24.8,-100.00,North,-999,-999.0,-999.0,55,-99.99,,,-99.99,WSDL version 420,2013-02-13 23:19:00,
2013-02-13 16:25:00,39.7,24.8,-100.00,North,-999,-999.0,-999.0,55,-99.99,,,-99.99,WSDL version 420,2013-02-13 23:25:00,
2013-02-13 16:31:00,39.4,26.3,-100.00,North,-999,-999.0,-999.0,64,-99.99,,,-99.99,WSDL version 420,2013-02-13 23:31:00,
2013-02-13 16:36:00,38.6,26.6,-100.00,North,-999,-999.0,-999.0,60,-99.99,,,-99.99,WSDL version 420,2013-02-13 23:36:00,
2013-02-13 16:41:00,38.5,26.3,-100.00,North,-999,-999.0,-999.0,61,-99.99,,,-99.99,WSDL version 420,2013-02-13 23:41:00,
2013-02-13 16:46:00,38.3,26.7,-100.00,North,-999,-999.0,-999.0,65,-99.99,,,-99.99,WSDL version 420,2013-02-13 23:46:00,
2013-02-13 16:51:00,38.1,26.7,-100.00,North,-999,-999.0,-999.0,62,-99.99,,,-99.99,WSDL version 420,2013-02-13 23:51:00,
2013-02-13 16:57:00,38.1,26.3,-100.00,North,-999,-999.0,-999.0,63,-99.99,,,-99.99,WSDL version 420,2013-02-13 23:57:00,
2013-02-13 17:02:00,37.9,27.0,-100.00,North,-999,-999.0,-999.0,65,-99.99,,,-99.99,WSDL version 420,2013-02-14 00:02:00,
2013-02-13 17:07:00,38.0,26.7,-100.00,North,-999,-999.0,-999.0,63,-99.99,,,-99.99,WSDL version 420,2013-02-14 00:07:00,
2013-02-13 17:13:00,38.1,26.1,-100.00,North,-999,-999.0,-999.0,61,-99.99,,,-99.99,WSDL version 420,2013-02-14 00:13:00,
2013-02-13 17:18:00,38.1,26.2,-100.00,North,-999,-999.0,-999.0,63,-99.99,,,-99.99,WSDL version 420,2013-02-14 00:18:00,
2013-02-13 17:23:00,37.9,26.3,-100.00,North,-999,-999.0,-999.0,64,-99.99,,,-99.99,WSDL version 420,2013-02-14 00:23:00,
2013-02-13 17:28:00,37.7,26.1,-100.00,North,-999,-999.0,-999.0,62,-99.99,,,-99.99,WSDL version 420,2013-02-14 00:28:00,
2013-02-13 17:33:00,37.5,25.5,-100.00,North,-999,-999.0,-999.0,61,-99.99,,,-99.99,WSDL version 420,2013-02-14 00:33:00,
2013-02-13 17:38:00,37.3,25.3,-100.00,North,-999,-999.0,-999.0,62,-99.99,,,-99.99,WSDL version 420,2013-02-14 00:38:00,
2013-02-13 17:43:00,37.2,25.1,-100.00,North,-999,-999.0,-999.0,61,-99.99,,,-99.99,WSDL version 420,2013-02-14 00:43:00,
2013-02-13 17:48:00,37.4,24.7,-100.00,North,-999,-999.0,-999.0,60,-99.99,,,-99.99,WSDL version 420,2013-02-14 00:48:00,
2013-02-13 17:54:00,37.4,24.9,-100.00,North,-999,-999.0,-999.0,60,-99.99,,,-99.99,WSDL version 420,2013-02-14 00:54:00,
2013-02-13 17:59:00,37.4,24.8,-100.00,North,-999,-999.0,-999.0,60,-99.99,,,-99.99,WSDL version 420,2013-02-14 00:59:00,
2013-02-13 18:04:00,37.4,24.4,-100.00,North,-999,-999.0,-999.0,59,-99.99,,,-99.99,WSDL version 420,2013-02-14 01:04:00,
2013-02-13 18:09:00,37.4,24.3,-100.00,North,-999,-999.0,-999.0,58,-99.99,,,-99.99,WSDL version 420,2013-02-14 01:09:00,
2013-02-13 18:14:00,37.4,24.0,-100.00,North,-999,-999.0,-999.0,58,-99.99,,,-99.99,WSDL version 420,2013-02-14 01:14:00,
2013-02-13 18:19:00,37.3,24.2,-100.00,North,-999,-999.0,-999.0,59,-99.99,,,-99.99,WSDL version 420,2013-02-14 01:19:00,
2013-02-13 18:24:00,37.2,24.2,-100.00,North,-999,-999.0,-999.0,59,-99.99,,,-99.99,WSDL version 420,2013-02-14 01:24:00,
2013-02-13 18:29:00,37.1,23.7,-100.00,North,-999,-999.0,-999.0,58,-99.99,,,-99.99,WSDL version 420,2013-02-14 01:29:00,
2013-02-13 18:34:00,37.0,23.6,-100.00,North,-999,-999.0,-999.0,58,-99.99,,,-99.99,WSDL version 420,2013-02-14 01:34:00,
2013-02-13 18:39:00,36.9,23.6,-100.00,North,-999,-999.0,-999.0,59,-99.99,,,-99.99,WSDL version 420,2013-02-14 01:39:00,
2013-02-13 18:44:00,36.9,23.9,-100.00,North,-999,-999.0,-999.0,59,-99.99,,,-99.99,WSDL version 420,2013-02-14 01:44:00,
2013-02-13 18:49:00,36.7,23.5,-100.00,North,-999,-999.0,-999.0,58,-99.99,,,-99.99,WSDL version 420,2013-02-14 01:49:00,
2013-02-13 18:54:00,36.4,23.2,-100.00,North,-999,-999.0,-999.0,59,-99.99,,,-99.99,WSDL version 420,2013-02-14 01:54:00,
2013-02-13 18:59:00,36.2,23.3,-100.00,North,-999,-999.0,-999.0,59,-99.99,,,-99.99,WSDL version 420,2013-02-14 01:59:00,
2013-02-13 19:04:00,36.1,23.1,-100.00,North,-999,-999.0,-999.0,59,-99.99,,,-99.99,WSDL version 420,2013-02-14 02:04:00,
2013-02-13 19:09:00,36.0,23.0,-100.00,North,-999,-999.0,-999.0,59,-99.99,,,-99.99,WSDL version 420,2013-02-14 02:09:00,
2013-02-13 19:14:00,36.0,23.0,-100.00,North,-999,-999.0,-999.0,59,-99.99,,,-99.99,WSDL version 420,2013-02-14 02:14:00,
2013-02-13 19:19:00,35.8,23.0,-100.00,North,-999,-999.0,-999.0,60,-99.99,,,-99.99,WSDL version 420,2013-02-14 02:19:00,
2013-02-13 19:24:00,35.8,23.3,-100.00,North,-999,-999.0,-999.0,60,-99.99,,,-99.99,WSDL version 420,2013-02-14 02:24:00,
2013-02-13 19:29:00,35.8,23.3,-100.00,North,-999,-999.0,-999.0,60,-99.99,,,-99.99,WSDL version 420,2013-02-14 02:29:00,
2013-02-13 19:34:00,35.8,23.3,-100.00,North,-999,-999.0,-999.0,60,-99.99,,,-99.99,WSDL version 420,2013-02-14 02:34:00,
2013-02-13 19:39:00,35.8,23.4,-100.00,North,-999,-999.0,-999.0,61,-99.99,,,-99.99,WSDL version 420,2013-02-14 02:39:00,
2013-02-13 19:44:00,35.8,23.6,-100.00,North,-999,-999.0,-999.0,61,-99.99,,,-99.99,WSDL version 420,2013-02-14 02:44:00,
2013-02-13 19:49:00,35.8,23.9,-100.00,North,-999,-999.0,-999.0,63,-99.99,,,-99.99,WSDL version 420,2013-02-14 02:49:00,
2013-02-13 19:54:00,35.8,24.5,-100.00,North,-999,-999.0,-999.0,63,-99.99,,,-99.99,WSDL version 420,2013-02-14 02:54:00,
2013-02-13 19:59:00,35.5,24.3,-100.00,North,-999,-999.0,-999.0,64,-99.99,,,-99.99,WSDL version 420,2013-02-14 02:59:00,
2013-02-13 20:04:00,35.4,24.4,-100.00,North,-999,-999.0,-999.0,64,-99.99,,,-99.99,WSDL version 420,2013-02-14 03:04:00,
2013-02-13 20:09:00,35.1,23.8,-100.00,North,-999,-999.0,-999.0,63,-99.99,,,-99.99,WSDL version 420,2013-02-14 03:09:00,
2013-02-13 20:14:00,35.1,23.8,-100.00,North,-999,-999.0,-999.0,63,-99.99,,,-99.99,WSDL version 420,2013-02-14 03:14:00,
2013-02-13 20:19:00,34.9,23.6,-100.00,North,-999,-999.0,-999.0,63,-99.99,,,-99.99,WSDL version 420,2013-02-14 03:19:00,
2013-02-13 20:24:00,34.9,23.5,-100.00,North,-999,-999.0,-999.0,63,-99.99,,,-99.99,WSDL version 420,2013-02-14 03:24:00,
2013-02-13 20:29:00,34.9,23.6,-100.00,North,-999,-999.0,-999.0,63,-99.99,,,-99.99,WSDL version 420,2013-02-14 03:29:00,
2013-02-13 20:34:00,35.3,24.1,-100.00,North,-999,-999.0,-999.0,64,-99.99,,,-99.99,WSDL version 420,2013-02-14 03:34:00,
2013-02-13 20:39:00,34.6,23.5,-100.00,North,-999,-999.0,-999.0,63,-99.99,,,-99.99,WSDL version 420,2013-02-14 03:39:00,
2013-02-13 20:44:00,34.5,23.2,-100.00,North,-999,-999.0,-999.0,63,-99.99,,,-99.99,WSDL version 420,2013-02-14 03:44:00,
2013-02-13 20:49:00,34.5,23.2,-100.00,North,-999,-999.0,-999.0,63,-99.99,,,-99.99,WSDL version 420,2013-02-14 03:49:00,
2013-02-13 20:54:00,34.6,23.3,-100.00,North,-999,-999.0,-999.0,63,-99.99,,,-99.99,WSDL version 420,2013-02-14 03:54:00,
2013-02-13 20:59:00,34.5,23.2,-100.00,North,-999,-999.0,-999.0,63,-99.99,,,-99.99,WSDL version 420,2013-02-14 03:59:00,
2013-02-13 21:13:00,34.5,23.6,-100.00,North,-999,-999.0,-999.0,64,-99.99,,,-99.99,WSDL version 420,2013-02-14 04:13:00,
2013-02-13 21:18:00,34.5,23.6,-100.00,North,-999,-999.0,-999.0,64,-99.99,,,-99.99,WSDL version 420,2013-02-14 04:18:00,
2013-02-13 21:23:00,34.7,23.8,-100.00,North,-999,-999.0,-999.0,64,-99.99,,,-99.99,WSDL version 420,2013-02-14 04:23:00,
2013-02-13 21:28:00,34.9,23.9,-100.00,North,-999,-999.0,-999.0,64,-99.99,,,-99.99,WSDL version 420,2013-02-14 04:28:00,
2013-02-13 21:33:00,34.9,23.9,-100.00,North,-999,-999.0,-999.0,64,-99.99,,,-99.99,WSDL version 420,2013-02-14 04:33:00,
2013-02-13 21:38:00,34.9,23.9,-100.00,North,-999,-999.0,-999.0,64,-99.99,,,-99.99,WSDL version 420,2013-02-14 04:38:00,
2013-02-13 21:43:00,34.9,23.9,-100.00,North,-999,-999.0,-999.0,64,-99.99,,,-99.99,WSDL version 420,2013-02-14 04:43:00,
2013-02-13 21:48:00,35.1,24.6,-100.00,North,-999,-999.0,-999.0,67,-99.99,,,-99.99,WSDL version 420,2013-02-14 04:48:00,
2013-02-13 21:53:00,35.1,25.8,-100.00,North,-999,-999.0,-999.0,69,-99.99,,,-99.99,WSDL version 420,2013-02-14 04:53:00,
2013-02-13 21:58:00,35.0,26.0,-100.00,North,-999,-999.0,-999.0,70,-99.99,,,-99.99,WSDL version 420,2013-02-14 04:58:00,
2013-02-13 22:00:00,35.0,26.2,-100.00,North,-999,-999.0,-999.0,71,-99.99,,,-99.99,WSDL version 420,2013-02-14 05:00:00,
2013-02-13 22:02:00,34.9,26.3,-100.00,North,-999,-999.0,-999.0,71,-99.99,,,-99.99,WSDL version 420,2013-02-14 05:02:00,
2013-02-13 22:07:00,34.7,26.0,-100.00,North,-999,-999.0,-999.0,71,-99.99,,,-99.99,WSDL version 420,2013-02-14 05:07:00,
2013-02-13 22:12:00,34.5,25.8,-100.00,North,-999,-999.0,-999.0,71,-99.99,,,-99.99,WSDL version 420,2013-02-14 05:12:00,
2013-02-13 22:17:00,34.3,26.0,-100.00,North,-999,-999.0,-999.0,73,-99.99,,,-99.99,WSDL version 420,2013-02-14 05:17:00,
2013-02-13 22:22:00,34.0,25.8,-100.00,North,-999,-999.0,-999.0,71,-99.99,,,-99.99,WSDL version 420,2013-02-14 05:22:00,
2013-02-13 22:27:00,33.9,25.8,-100.00,North,-999,-999.0,-999.0,73,-99.99,,,-99.99,WSDL version 420,2013-02-14 05:27:00,
2013-02-13 22:32:00,33.7,25.7,-100.00,North,-999,-999.0,-999.0,73,-99.99,,,-99.99,WSDL version 420,2013-02-14 05:32:00,
2013-02-13 22:37:00,33.6,26.0,-100.00,North,-999,-999.0,-999.0,73,-99.99,,,-99.99,WSDL version 420,2013-02-14 05:37:00,
2013-02-13 22:42:00,33.5,25.7,-100.00,North,-999,-999.0,-999.0,74,-99.99,,,-99.99,WSDL version 420,2013-02-14 05:42:00,
2013-02-13 22:47:00,33.4,26.3,-100.00,North,-999,-999.0,-999.0,76,-99.99,,,-99.99,WSDL version 420,2013-02-14 05:47:00,
2013-02-13 22:52:00,33.4,26.5,-100.00,North,-999,-999.0,-999.0,76,-99.99,,,-99.99,WSDL version 420,2013-02-14 05:52:00,
2013-02-13 22:57:00,33.4,26.5,-100.00,North,-999,-999.0,-999.0,76,-99.99,,,-99.99,WSDL version 420,2013-02-14 05:57:00,
2013-02-13 23:02:00,33.3,26.8,-100.00,North,-999,-999.0,-999.0,78,-99.99,,,-99.99,WSDL version 420,2013-02-14 06:02:00,
2013-02-13 23:07:00,33.2,27.1,-100.00,North,-999,-999.0,-999.0,78,-99.99,,,-99.99,WSDL version 420,2013-02-14 06:07:00,
2013-02-13 23:09:00,33.1,27.0,-100.00,North,-999,-999.0,-999.0,77,-99.99,,,-99.99,WSDL version 420,2013-02-14 06:09:00,
2013-02-13 23:14:00,32.8,27.0,-100.00,North,-999,-999.0,-999.0,82,-99.99,,,-99.99,WSDL version 420,2013-02-14 06:14:00,
2013-02-13 23:19:00,32.3,28.3,-100.00,North,-999,-999.0,-999.0,86,-99.99,,,-99.99,WSDL version 420,2013-02-14 06:19:00,
2013-02-13 23:24:00,32.1,28.6,-100.00,North,-999,-999.0,-999.0,86,-99.99,,,-99.99,WSDL version 420,2013-02-14 06:24:00,
2013-02-13 23:29:00,31.7,28.5,-100.00,North,-999,-999.0,-999.0,88,-99.99,,,-99.99,WSDL version 420,2013-02-14 06:29:00,
2013-02-13 23:31:00,31.3,28.3,-100.00,North,-999,-999.0,-999.0,88,-99.99,,,-99.99,WSDL version 420,2013-02-14 06:31:00,
2013-02-13 23:36:00,30.5,27.9,-100.00,North,-999,-999.0,-999.0,89,-99.99,,,-99.99,WSDL version 420,2013-02-14 06:36:00,
2013-02-13 23:41:00,30.2,27.7,-100.00,North,-999,-999.0,-999.0,89,-99.99,,,-99.99,WSDL version 420,2013-02-14 06:41:00,
2013-02-13 23:46:00,30.2,27.4,-100.00,North,-999,-999.0,-999.0,87,-99.99,,,-99.99,WSDL version 420,2013-02-14 06:46:00,
2013-02-13 23:51:00,30.0,26.8,-100.00,North,-999,-999.0,-999.0,86,-99.99,,,-99.99,WSDL version 420,2013-02-14 06:51:00,
2013-02-13 23:56:00,29.8,26.4,-100.00,North,-999,-999.0,-999.0,86,-99.99,,,-99.99,WSDL version 420,2013-02-14 06:56:00,